sat.trackr.live / text

‹ back to catalog

STARLINK-35732

NORAD 67037 · 2025-294H

PAYLOAD ACTIVE UNKNOWN

§ Identity

Operator
Country
US
Launch date
2025-12-11
Launch site
AFETR
Launch vehicle
Mass (kg)
RCS (m²)

Purposes: comms

External: N2YO · Heavens-Above · Gunter

§ Orbital elements

Epoch: 2026-09-20T14:07:31.629792Z

Period
94.27 min
Inclination
43.0022°
Eccentricity
0.0001427
Mean motion
15.27589708 rev/d
Perigee alt
482.0 km
Apogee alt
484.0 km
Semi-major
6,861.2 km
B*
4.5951e-4
RAAN
17.6308°
Arg perigee
262.4736°
Mean anomaly
97.5954°
Rev number
4,460

§ Raw data

STARLINK-357321 67037U 25294H   26263.58856053  .00012408  00000+0  45951-3 0  99952 67037  43.0022  17.6308 0001427 262.4736  97.5954 15.27589708 44600

JSON: /api/v1/satellites/67037 · /tle

For live sub-satellite position, see the globe view (requires WebGL).

§ Visibility from observer

Set your observer location to see the next 7 days of passes ≥ 10°. The values pass through the URL so the page stays shareable.

No JS? Fill the form by hand. The geolocation button needs JavaScript.